STARLINK-1132, 45044

Orbit data source: Space-Track

STARLINK-1132, 45044 is a payload satellite owned by SpaceX/Seattle (US) in LEO that was launched on Wed, 29 Jan 2020 UTC via an FALCON 9 launch vehicle from the Air Force Eastern Test Range (AFETR). Payload-class satellites include a variety of spacecraft equipped with specific instruments for various scientific and technological missions. These include communications satellites like Starlink; space stations such as the ISS; scientific satellites like the Hubble; Earth observation satellites from companies like Planet Labs, Umbra, and HawkEye 360; GPS; miniature CubeSats for education and research; and military/defense satellites.

Loading next visibility...
Identifier
45044, 2020-006A
Orbit
LEO
Country
Flag of USUS
Related business
Manufacturer
SpaceX/Seattle
Mission
Operational Commercial Communications
Bus & Motor
STARLINK, Unknown motor
Mass
260 kg wet, ~248 kg dry
Launch date (UTC)
2020-01-29 (6 years ago)
Launch vehicle
FALCON 9
Launch site
Air Force Eastern Test Range (AFETR)
Object type
Payload
Rocket body
Debris
Shape & HBR
Box + 1 Pan, 10.1 m
Radar Cross Section
13.562 m², Large (>1 m²)

Expand to show TLE details & history
Last TLE update: 1 day ago

TLE from 1 day ago
0 STARLINK-1132
1 45044U 20006A   25340.36959954  .00011060  00000-0  76004-3 0  9997
2 45044  53.0540 325.5511 0001571 100.8539 259.2627 15.06409145322676
Epoch: 2025-12-06T08:52Z
TLE epoch observation values (Epoch: 2025-12-06T08:52:13.400Z)
Latitude
Longitude
117.09695°
Altitude
548.266 km
Speed
7.589 km/s
True Right ascension
21h 42m 12s
True Declination
0° 00' 00"
Sunlit
Object was in daylight at epoch
Visualization orbit readout
Latitude
Unknown
Longitude
Unknown
Altitude
Unknown
Speed
Unknown
Apparent Right ascension
Unknown
Apparent Declination
Unknown
Sunlit
N/A
Visualization observer readout
Local Sidereal Time
11:43:23
Azimuth
Unknown
Elevation
Unknown
Doppler factor
Unknown
Orbital elements
Apogee altitude
548.542 km
Perigee altitude
546.366 km
Semi-major axis
6,925.591 km
Eccentricity
0.00016
Inclination
53.054°
RAAN
325.5511°
Arg. of periapsis
100.8539°
True anomaly
259.24501°
Mean anomaly
259.2627°
Eccentric anomaly
259.25386°
Mean motion
3.76581 °/min
Orbital period
95.6 mins
BSTAR
0.00076004
Loading maneuver chart data...
Computing Atmospheric mass density...

Documentation

Showing up to 5 results
|